DateTime,F1_A11,F1_S11,BsB_S11,BsG_S11,BsR_S11,BbsB_S11,BbsG_S11,BbsR_S11,BaB_A11,BaG_A11,BaR_A11,T_S11,U_S11,P_S11,T1_A11
2016-05-23T00:00:00Z,0000380,21000600,,,,,,,,,,26.5,00.6,0662.2,34.7
2016-05-23T00:01:00Z,0000380,21000600,,,,,,,,,,26.5,00.6,0662.2,34.7
2016-05-23T00:02:00Z,0000380,21000600,,,,,,,,,,26.5,00.6,0662.2,34.7
2016-05-23T00:03:00Z,0000380,61000600,,,,,,,,,,26.6,00.6,0662.2,34.7
2016-05-23T00:04:00Z,0000380,41000600,0002.33,0001.93,0000.89,0000.38,0000.67,0000.18,0000.09,-000.03,0000.31,26.7,00.5,0663.1,34.7
2016-05-23T00:05:00Z,0000380,01000600,0001.65,0001.33,0000.74,-000.46,0000.24,-000.16,0000.06,0000.13,-000.34,26.7,00.5,0663.1,34.7
2016-05-23T00:06:00Z,0000380,01000600,0002.42,0001.24,0000.71,-000.18,0000.52,-000.08,-000.02,0000.20,0000.06,26.7,00.4,0663.1,34.7
2016-05-23T00:07:00Z,0000380,01000600,0001.12,0000.67,0000.07,0000.13,0000.51,-000.06,0000.25,0000.18,0000.34,26.7,00.5,0663.1,34.7
2016-05-23T00:08:00Z,0000380,01000600,0000.77,0000.92,0000.37,0000.00,0000.76,0000.00,0000.25,0000.03,-000.13,26.7,00.5,0663.1,34.7
2016-05-23T00:09:00Z,0000380,01000600,0000.19,0000.53,0000.08,0000.40,0000.59,-000.19,0000.07,0000.06,0000.31,26.7,00.5,0663.1,34.7
2016-05-23T00:10:00Z,0000380,01000600,0000.29,0000.58,-000.22,0000.16,0000.51,-000.26,0000.22,0000.21,-000.01,26.7,00.5,0663.1,34.7
2016-05-23T00:11:00Z,0000380,01000600,0000.46,0000.49,-000.21,0000.05,-000.08,-000.54,0000.23,0000.12,0000.28,26.7,00.7,0663.1,34.7
2016-05-23T00:12:00Z,0000380,01000600,0000.12,0000.63,0000.03,0000.14,0000.29,-000.26,0000.07,0000.03,0000.15,26.7,00.6,0663.1,34.7
2016-05-23T00:13:00Z,0000380,01000600,0000.13,0000.21,-000.07,0000.49,0000.11,-000.40,-000.22,0000.02,-000.30,26.7,00.7,0663.1,34.7
2016-05-23T00:14:00Z,0000380,01000600,-000.22,0000.11,0000.52,0000.02,0000.29,-000.13,-000.11,-000.21,-000.12,26.7,00.6,0663.1,34.7
2016-05-23T00:15:00Z,0000380,01000600,0000.10,-000.38,-000.17,0000.02,0000.16,-000.19,0000.24,0000.06,-000.03,26.7,00.6,0663.1,34.7
2016-05-23T00:16:00Z,0000380,01000600,-000.21,0000.50,0000.38,0000.35,0000.24,-000.26,0000.08,0000.18,0000.34,26.7,00.7,0663.1,34.7
2016-05-23T00:17:00Z,0000380,01000600,-000.47,0000.19,0000.05,0000.27,0000.25,0000.02,0000.11,-000.02,-000.07,26.7,00.6,0663.1,34.7
2016-05-23T00:18:00Z,0000380,01000600,0000.50,0000.55,0000.12,0000.19,0000.13,-000.29,-000.13,0000.12,0000.11,26.7,00.6,0663.1,34.7
2016-05-23T00:19:00Z,0000380,01000600,-000.08,0000.27,0000.35,-000.06,0000.59,-000.06,0000.28,0000.25,-000.06,26.7,00.6,0663.1,34.7
2016-05-23T00:20:00Z,0000380,01000600,0000.39,-000.08,0000.23,-000.10,0000.08,-000.05,0000.07,-000.10,0000.25,26.7,00.6,0663.1,34.7
2016-05-23T00:21:00Z,0000380,01000600,-000.46,-000.12,-000.33,-000.06,-000.13,-000.40,0000.16,0000.17,-000.02,26.7,00.7,0663.1,34.7
2016-05-23T00:22:00Z,0000380,01000600,-000.55,-000.02,0000.47,0000.41,0000.21,-000.02,0000.27,0000.29,0000.00,26.7,00.7,0663.1,34.7
2016-05-23T00:23:00Z,0000380,01000600,-000.49,0000.32,0000.27,-000.30,0000.49,0000.05,0000.15,0000.04,0000.35,26.7,00.8,0663.1,34.7
2016-05-23T00:24:00Z,0000380,01000600,-000.11,-000.02,-000.31,-000.32,0000.21,0000.05,0000.01,0000.25,0000.13,26.7,00.8,0663.1,34.7
2016-05-23T00:25:00Z,0000380,01000600,0000.33,-000.13,-000.21,-000.16,0000.02,-000.64,0000.12,0000.21,0000.07,26.7,00.9,0663.1,34.7
2016-05-23T00:26:00Z,0000380,01000600,0000.76,0000.50,-000.19,0000.57,0000.29,-000.26,0000.10,-000.16,0000.26,26.7,00.9,0663.1,34.7
2016-05-23T00:27:00Z,0000380,01000600,0000.02,0000.17,0000.29,-000.02,0000.25,0000.10,0000.02,0000.08,-000.45,26.7,00.9,0663.1,34.7
2016-05-23T00:28:00Z,0000380,01000600,0000.73,0000.31,-000.28,-000.14,0000.11,-000.30,-000.26,-000.03,-000.08,26.7,00.9,0663.1,34.7
2016-05-23T00:29:00Z,0000380,01000600,-000.23,-000.19,-000.28,0000.30,0000.11,-000.16,-000.01,-000.23,0000.02,26.7,00.9,0663.1,34.7
2016-05-23T00:30:00Z,0000380,01000600,0000.41,0000.41,0000.09,0000.13,0000.19,-000.35,-000.31,-000.33,-000.22,26.7,00.7,0663.1,34.7
2016-05-23T00:31:00Z,0000380,01000600,0000.38,0000.29,0000.13,0000.03,0000.13,0000.34,-000.16,0000.01,0000.19,26.7,00.6,0663.1,34.7
2016-05-23T00:32:00Z,0000380,01000600,0000.54,0000.65,0000.08,0000.05,0000.29,0000.22,-000.17,-000.21,-000.55,26.8,00.5,0663.1,34.7
2016-05-23T00:33:00Z,0000380,01000600,0000.42,0000.17,0000.10,-000.26,0000.02,-000.30,0000.19,-000.06,0000.23,26.8,00.5,0663.1,34.7
2016-05-23T00:34:00Z,0000380,01000600,0000.61,0000.15,0000.66,0000.41,0000.10,-000.24,-000.12,0000.18,-000.08,26.8,00.4,0663.1,34.7
2016-05-23T00:35:00Z,0000380,01000600,-000.04,0000.51,0000.16,-000.16,0000.41,-000.24,0000.33,0000.09,0000.18,26.8,00.4,0663.2,34.7
2016-05-23T00:36:00Z,0000380,01000600,0000.45,0001.01,0000.70,0000.35,0000.40,0000.00,-000.11,-000.03,0000.11,26.8,00.4,0663.2,34.7
2016-05-23T00:37:00Z,0000380,01000600,0002.30,0000.59,0000.47,0000.08,0000.51,0000.26,-000.03,-000.08,-000.47,26.8,00.4,0663.2,34.7
2016-05-23T00:38:00Z,0000380,01000600,0003.17,0002.13,0001.09,0000.43,0000.70,-000.02,-000.10,-000.06,-000.11,26.8,00.3,0663.2,34.7
2016-05-23T00:39:00Z,0000380,01000600,0000.90,0001.48,0000.69,-000.02,0000.84,0000.03,0000.19,0000.31,0000.68,26.8,00.2,0663.2,34.7
2016-05-23T00:40:00Z,0000380,01000600,0000.98,-000.09,0000.05,0000.24,0000.13,0000.03,0000.50,0000.13,-000.03,26.8,00.3,0663.2,34.7
2016-05-23T00:41:00Z,0000380,01000600,0001.41,0000.53,0000.10,0000.13,-000.38,0000.06,0000.02,-000.17,0000.35,26.8,00.3,0663.2,34.7
2016-05-23T00:42:00Z,0000380,01000600,0002.30,0001.45,0000.94,0000.46,0000.13,0000.16,-000.21,0000.03,-000.74,26.8,00.3,0663.2,34.7
2016-05-23T00:43:00Z,0000380,01000600,0002.61,0002.44,0000.70,0000.49,0000.43,0000.16,0000.06,-000.22,0000.21,26.7,00.2,0663.2,34.7
2016-05-23T00:44:00Z,0000380,01000600,0000.83,0000.57,0000.58,0000.08,0000.46,-000.32,0000.33,0000.64,0000.29,26.8,00.2,0663.2,34.7
2016-05-23T00:45:00Z,0000380,01000600,0000.78,0000.45,-000.17,0000.05,0000.56,-000.26,0000.15,-000.19,0000.19,26.7,00.3,0663.2,34.7
2016-05-23T00:46:00Z,0000380,01000600,0002.28,0001.53,0000.76,0000.70,0000.14,0000.27,-000.26,-000.16,0000.05,26.7,00.3,0663.2,34.7
2016-05-23T00:47:00Z,0000380,01000600,0003.75,0001.85,0000.19,0000.89,0000.03,-000.03,-000.07,0000.22,-000.10,26.7,00.2,0663.2,34.7
2016-05-23T00:48:00Z,0000380,01000600,0000.33,0000.89,0000.19,0000.14,0000.08,0000.00,0000.54,0000.37,0000.26,26.7,00.2,0663.2,34.7
2016-05-23T00:49:00Z,0000380,01000600,-000.21,0000.20,-000.11,0000.05,0000.46,-000.18,0000.13,0000.10,-000.07,26.7,00.3,0663.1,34.7
2016-05-23T00:50:00Z,0000380,01000600,0001.59,0001.08,0000.43,-000.11,0000.35,0000.13,-000.29,-000.31,-000.21,26.7,00.5,0663.2,34.7
2016-05-23T00:51:00Z,0000380,01000600,0002.13,0001.26,0000.40,0000.35,0000.56,0000.05,-000.20,0000.14,0000.18,26.7,00.2,0663.2,34.7
2016-05-23T00:52:00Z,0000380,01000600,0000.25,0000.53,0000.11,-000.21,0000.79,-000.13,0000.51,0000.24,0000.27,26.7,00.2,0663.2,34.7
2016-05-23T00:53:00Z,0000380,01000600,0000.16,0000.48,-000.34,-000.19,0000.40,-000.29,0000.07,0000.24,0000.10,26.7,00.3,0663.2,34.7
2016-05-23T00:54:00Z,0000380,01000600,-000.27,-000.21,-000.21,0000.05,0000.44,-000.22,0000.18,0000.00,-000.24,26.7,00.3,0663.2,34.7
2016-05-23T00:55:00Z,0000380,01000600,0000.47,-000.13,0000.24,-000.80,0000.19,0000.02,0000.10,0000.01,0000.12,26.7,00.3,0663.2,34.7
2016-05-23T00:56:00Z,0000380,01000600,0000.45,0000.57,0000.49,-000.03,-000.40,-000.02,-000.14,-000.23,-000.30,26.7,00.3,0663.2,34.7
2016-05-23T00:57:00Z,0000380,41000600,,,,,,,,,,,,0663.1,34.7
2016-05-23T00:58:00Z,0000380,61000600,,,,,,,,,,26.5,00.3,0662.3,34.7
2016-05-23T00:59:00Z,0000380,21000600,,,,,,,,,,26.5,00.3,0662.3,34.7
2016-05-23T01:00:00Z,0000380,21000600,,,,,,,,,,26.5,00.3,0662.3,34.7
2016-05-23T01:01:00Z,0000380,21000600,,,,,,,,,,26.5,00.3,0662.3,34.7
2016-05-23T01:02:00Z,0000380,21000600,,,,,,,,,,26.5,00.4,0662.3,34.7
2016-05-23T01:03:00Z,0000380,61000600,,,,,,,,,,26.6,00.4,0662.3,34.7
2016-05-23T01:04:00Z,0000380,41000600,0000.22,0000.66,0000.18,-000.27,0000.37,0000.05,0000.00,0000.05,0000.40,26.8,00.6,0663.1,34.7
2016-05-23T01:05:00Z,0000380,01000600,0000.39,-000.13,0000.07,-000.34,0000.13,0000.02,-000.22,-000.02,-000.30,26.8,00.6,0663.2,34.7
2016-05-23T01:06:00Z,0000380,01000600,-000.64,0000.04,0000.84,0000.06,0000.00,0000.19,-000.02,-000.11,0000.20,26.8,00.5,0663.2,34.7
2016-05-23T01:07:00Z,0000380,01000600,0000.87,0000.21,0000.00,-000.49,0000.30,-000.14,-000.25,-000.26,-000.07,26.8,00.4,0663.2,34.7
2016-05-23T01:08:00Z,0000380,01000600,0001.43,0000.49,0000.11,0000.05,-000.05,0000.10,0000.19,0000.14,-000.30,26.9,00.3,0663.2,34.7
2016-05-23T01:09:00Z,0000380,01000600,0001.44,-000.07,0000.04,0000.10,0000.03,-000.06,0000.02,-000.09,0000.35,26.9,00.3,0663.2,34.7
2016-05-23T01:10:00Z,0000380,01000600,0001.70,0001.20,0000.42,-000.34,0000.30,0000.32,0000.17,0000.28,-000.20,26.9,00.3,0663.2,34.7
2016-05-23T01:11:00Z,0000380,01000600,0001.63,0000.78,0000.18,0000.37,0000.35,0000.32,-000.06,0000.02,0000.03,26.9,00.3,0663.2,34.7
2016-05-23T01:12:00Z,0000380,01000600,0001.50,0000.08,0000.54,-000.57,0000.37,0000.19,0000.14,-000.04,0000.54,26.9,00.3,0663.2,34.7
2016-05-23T01:13:00Z,0000380,01000600,0001.74,0000.71,0000.50,-000.61,0000.48,0000.10,0000.14,0000.09,-000.19,26.9,00.3,0663.2,34.7
2016-05-23T01:14:00Z,0000380,01000600,0002.49,0001.41,0000.72,0000.48,0000.35,0000.08,-000.19,0000.18,-000.06,26.9,00.2,0663.2,34.7
2016-05-23T01:15:00Z,0000380,01000600,0003.73,0001.73,0001.43,0000.14,0000.19,0000.08,0000.36,-000.14,-000.03,27.0,00.2,0663.2,34.8
2016-05-23T01:16:00Z,0000380,01000600,0003.72,0001.50,0000.87,0000.91,0000.56,0000.10,-000.11,0000.25,-000.21,26.9,00.2,0663.2,34.8
2016-05-23T01:17:00Z,0000380,01000600,0004.80,0003.36,0001.93,0000.64,0000.68,0000.27,0000.21,0000.07,0000.94,26.9,00.1,0663.2,34.8
2016-05-23T01:18:00Z,0000380,01000600,0004.97,0002.91,0001.33,0000.22,0000.62,0000.16,0000.20,0000.35,-000.05,27.0,00.1,0663.2,34.8
2016-05-23T01:19:00Z,0000380,01000600,0004.96,0002.98,0001.78,0000.13,0000.30,0000.30,0000.24,0000.05,-000.04,27.0,00.1,0663.2,34.8
2016-05-23T01:20:00Z,0000380,01000600,0005.47,0002.45,0001.36,0000.22,0000.57,0000.08,0000.30,0000.50,0000.22,26.9,00.1,0663.2,34.8
2016-05-23T01:21:00Z,0000380,01000600,0005.37,0002.48,0001.14,0000.26,0000.64,-000.03,0000.28,0000.26,0000.46,26.9,00.1,0663.2,34.8
2016-05-23T01:22:00Z,0000380,01000600,0005.26,0003.33,0001.87,0000.40,0000.64,-000.13,0000.19,0000.16,-000.48,26.9,00.1,0663.2,34.8
2016-05-23T01:23:00Z,0000380,01000600,0005.21,0002.64,0001.85,0000.13,0000.14,0000.11,0000.35,0000.21,0000.55,26.9,00.1,0663.2,34.8
2016-05-23T01:24:00Z,0000380,01000600,0005.63,0002.75,0001.96,0000.14,0000.16,-000.05,0000.22,0000.32,0000.09,26.9,00.1,0663.3,34.8
2016-05-23T01:25:00Z,0000380,01000600,0005.96,0003.90,0001.97,0000.80,0000.70,-000.22,0000.54,0000.22,0000.17,26.9,00.1,0663.3,34.8
2016-05-23T01:26:00Z,0000380,01000600,0006.74,0003.64,0002.57,0000.88,0000.33,0000.26,0000.29,0000.28,0000.19,26.9,00.1,0663.3,34.8
2016-05-23T01:27:00Z,0000380,01000600,0006.75,0004.09,0002.57,0000.49,0000.94,0000.38,0000.20,0000.20,0000.31,26.9,00.1,0663.3,34.8
2016-05-23T01:28:00Z,0000380,01000600,0006.23,0003.79,0002.49,0000.67,0000.13,0000.11,0000.55,0000.50,0000.48,26.9,00.1,0663.3,34.8
2016-05-23T01:29:00Z,0000380,01000600,0005.79,0003.62,0002.69,0000.81,0000.79,0000.54,0000.35,0000.23,0000.04,26.9,00.0,0663.3,34.8
2016-05-23T01:30:00Z,0000380,01000600,0005.59,0003.54,0001.87,0000.70,0000.24,0000.30,0000.15,0000.14,0000.25,26.9,00.1,0663.3,34.7
2016-05-23T01:31:00Z,0000380,01000600,0005.54,0003.28,0002.25,0000.73,0000.75,0000.11,0000.52,0000.49,-000.10,26.8,00.1,0663.2,34.7
2016-05-23T01:32:00Z,0000380,01000600,0004.11,0002.75,0001.64,0000.41,0000.43,0000.30,0000.57,0000.30,0000.26,26.8,00.1,0663.2,34.7
2016-05-23T01:33:00Z,0000380,01000600,0005.31,0003.40,0001.90,0000.75,0000.86,0000.18,0000.02,0000.22,0000.25,26.8,00.1,0663.2,34.7
2016-05-23T01:34:00Z,0000380,01000600,0004.82,0002.91,0002.05,0000.80,0000.46,0000.11,0000.30,0000.33,0000.51,26.8,00.1,0663.2,34.7
2016-05-23T01:35:00Z,0000380,01000600,0005.01,0002.66,0001.50,-000.32,0000.33,-000.11,0000.48,0000.17,0000.07,26.8,00.1,0663.2,34.7
2016-05-23T01:36:00Z,0000380,01000600,0003.22,0002.58,0001.17,0000.46,0000.46,0000.14,0000.39,0000.47,0000.34,26.8,00.2,0663.2,34.7
2016-05-23T01:37:00Z,0000380,01000600,0003.63,0001.52,0001.25,0000.30,0000.35,0000.24,0000.14,0000.19,0000.21,26.8,00.2,0663.2,34.7
2016-05-23T01:38:00Z,0000380,01000600,0002.90,0002.21,0001.27,-000.22,0000.46,0000.10,0000.33,0000.60,0000.18,26.8,00.2,0663.2,34.7
2016-05-23T01:39:00Z,0000380,01000600,0002.52,0002.22,0001.08,0000.27,0000.33,0000.21,0000.18,-000.01,0000.27,26.8,00.2,0663.2,34.7
2016-05-23T01:40:00Z,0000380,01000600,0004.34,0001.94,0001.26,0000.61,0000.16,-000.10,0000.18,0000.06,0000.05,26.8,00.2,0663.2,34.7
2016-05-23T01:41:00Z,0000380,01000600,0003.69,0002.18,0001.35,0000.53,0000.33,-000.05,0000.28,0000.22,-000.02,26.8,00.2,0663.2,34.7
2016-05-23T01:42:00Z,0000380,01000600,0002.64,0001.69,0001.46,0000.41,0000.44,0000.13,0000.32,0000.15,0000.50,26.7,00.2,0663.2,34.7
2016-05-23T01:43:00Z,0000380,01000600,0003.80,0002.61,0001.10,0000.24,0000.17,0000.11,-000.02,-000.05,-000.46,26.7,00.2,0663.2,34.7
2016-05-23T01:44:00Z,0000380,01000600,0004.37,0002.29,0001.22,0000.02,0000.29,0000.27,0000.32,0000.53,0000.50,26.7,00.2,0663.2,34.7
2016-05-23T01:45:00Z,0000380,01000600,0003.41,0002.25,0001.38,0000.30,0000.44,0000.54,0000.43,0000.12,0000.28,26.7,00.2,0663.2,34.7
2016-05-23T01:46:00Z,0000380,01000600,0002.77,0001.29,0001.15,-000.08,0000.60,-000.05,0000.06,0000.44,0000.20,26.7,00.2,0663.2,34.7
2016-05-23T01:47:00Z,0000380,01000600,0002.30,0000.76,0000.95,0000.14,0000.32,0000.21,0000.13,0000.18,0000.25,26.7,00.2,0663.2,34.7
2016-05-23T01:48:00Z,0000380,01000600,0000.39,0001.05,0000.23,0000.19,0000.14,-000.13,0000.56,0000.24,0000.28,26.7,00.3,0663.2,34.7
2016-05-23T01:49:00Z,0000380,01000600,0001.06,0000.28,0000.34,-000.33,0000.06,0000.05,0000.02,0000.12,0000.09,26.7,00.4,0663.2,34.7
2016-05-23T01:50:00Z,0000380,01000600,0001.03,0000.49,-000.02,0000.70,0000.27,-000.29,0000.26,0000.25,0000.32,26.7,00.4,0663.2,34.7
2016-05-23T01:51:00Z,0000380,01000600,0000.98,-000.02,0000.32,-000.08,0000.40,-000.14,0000.48,0000.30,0000.06,26.7,00.5,0663.2,34.7
2016-05-23T01:52:00Z,0000380,01000600,0001.07,0000.41,0000.07,-000.03,0000.06,-000.03,-000.00,0000.12,-000.10,26.7,00.6,0663.2,34.7
2016-05-23T01:53:00Z,0000380,01000600,0001.54,0000.64,0000.08,-000.06,0000.17,-000.11,0000.24,0000.16,0000.18,26.7,00.7,0663.2,34.7
2016-05-23T01:54:00Z,0000380,01000600,0001.19,0000.17,-000.08,0000.27,0000.11,0000.06,0000.16,0000.04,0000.35,26.7,00.7,0663.1,34.7
2016-05-23T01:55:00Z,0000380,01000600,0000.57,0000.23,0000.36,0000.54,-000.03,-000.10,0000.11,0000.20,0000.42,26.7,00.7,0663.2,34.7
2016-05-23T01:56:00Z,0000380,01000600,0001.09,0000.60,0000.63,-000.05,0000.67,0000.27,0000.05,0000.09,-000.20,26.7,00.7,0663.2,34.7
2016-05-23T01:57:00Z,0000380,40000600,,,,,,,,,,,,0663.2,34.7
2016-05-23T01:58:00Z,0000380,61000600,,,,,,,,,,26.5,00.6,0662.3,34.7
2016-05-23T01:59:00Z,0000380,21000600,,,,,,,,,,26.5,00.6,0662.3,34.7
2016-05-23T02:00:00Z,0000380,21000600,,,,,,,,,,26.5,00.6,0662.3,34.7
2016-05-23T02:01:00Z,0000380,21000600,,,,,,,,,,26.5,00.6,0662.3,34.7
2016-05-23T02:02:00Z,0000380,21000600,,,,,,,,,,26.5,00.6,0662.3,34.7
2016-05-23T02:03:00Z,0000380,61000600,,,,,,,,,,26.6,00.6,0662.3,34.7
2016-05-23T02:04:00Z,0000380,41000600,0000.22,0000.85,0000.40,0000.10,0000.29,0000.02,0000.00,0000.26,-000.01,26.6,00.7,0663.0,34.7
2016-05-23T02:05:00Z,0000380,01000600,0001.15,0000.40,0000.52,0000.11,0000.06,-000.13,0000.29,0000.35,0000.17,26.6,00.7,0663.1,34.7
2016-05-23T02:06:00Z,0000380,01000600,0000.61,0000.98,0000.42,0000.00,0000.35,-000.16,0000.10,0000.02,0000.09,26.6,00.8,0663.1,34.7
2016-05-23T02:07:00Z,0000380,01000600,0001.02,0000.77,-000.19,-000.19,0000.24,-000.03,0000.34,0000.25,-000.29,26.6,00.8,0663.1,34.7
2016-05-23T02:08:00Z,0000380,01000600,0000.44,0000.93,0000.34,-000.06,0000.35,0000.00,0000.06,0000.10,0000.49,26.6,00.8,0663.1,34.7
2016-05-23T02:09:00Z,0000380,01000600,0000.55,0000.38,0000.22,-000.27,0000.21,0000.02,0000.13,-000.04,-000.35,26.6,00.8,0663.1,34.7
2016-05-23T02:10:00Z,0000380,01000600,0001.11,0000.56,0000.30,-000.67,-000.05,-000.02,0000.11,0000.19,0000.17,26.6,00.8,0663.1,34.7
2016-05-23T02:11:00Z,0000380,01000600,0000.53,0000.67,0000.29,-000.37,0000.19,0000.14,0000.32,0000.08,0000.43,26.6,00.8,0663.1,34.7
2016-05-23T02:12:00Z,0000380,01000600,0000.89,0000.37,0000.13,-000.45,0000.33,-000.08,-000.06,0000.12,-000.38,26.5,00.9,0663.1,34.7
2016-05-23T02:13:00Z,0000380,01000600,0000.58,0000.14,0000.23,0000.45,0000.29,-000.13,0000.07,0000.13,0000.34,26.5,00.9,0663.1,34.7
2016-05-23T02:14:00Z,0000380,01000600,0000.93,0000.55,0000.15,-000.21,0000.22,-000.03,0000.09,-000.00,0000.21,26.5,00.8,0663.1,34.7
2016-05-23T02:15:00Z,0000380,01000600,0001.06,0000.78,-000.08,-000.37,0000.24,0000.02,0000.05,0000.04,0000.01,26.5,00.8,0663.1,34.7
2016-05-23T02:16:00Z,0000380,01000600,0000.42,0001.00,-000.05,-000.19,0000.16,-000.27,0000.26,0000.21,-000.06,26.5,00.9,0663.1,34.7
2016-05-23T02:17:00Z,0000380,01000600,0000.70,-000.20,0000.20,-000.13,-000.16,0000.00,-000.16,-000.07,-000.11,26.5,00.8,0663.1,34.7
2016-05-23T02:18:00Z,0000380,01000600,0001.21,0000.28,0000.56,-000.03,0000.43,-000.02,0000.17,0000.09,0000.27,26.5,00.8,0663.2,34.7
2016-05-23T02:19:00Z,0000380,01000600,0001.05,0000.72,0000.27,0000.00,0000.62,-000.02,0000.01,-000.08,-000.11,26.5,00.7,0663.2,34.7
2016-05-23T02:20:00Z,0000380,01000600,0000.47,0000.13,0000.57,0000.10,0000.10,-000.19,-000.11,0000.05,0000.05,26.5,00.7,0663.2,34.7
2016-05-23T02:21:00Z,0000380,01000600,0000.79,0001.06,0000.22,0000.18,-000.03,-000.13,0000.23,0000.19,-000.06,26.5,00.7,0663.2,34.7
2016-05-23T02:22:00Z,0000380,01000600,0000.97,0000.44,0000.33,0000.29,0000.40,0000.10,0000.07,-000.09,0000.01,26.5,00.7,0663.1,34.7
2016-05-23T02:23:00Z,0000380,01000600,0000.69,0000.34,-000.05,-000.33,0000.27,-000.21,0000.11,-000.14,0000.20,26.5,00.8,0663.2,34.7
2016-05-23T02:24:00Z,0000380,01000600,0000.34,0000.75,0000.25,0000.30,0000.03,0000.00,0000.18,0000.22,0000.03,26.4,00.8,0663.2,34.7
2016-05-23T02:25:00Z,0000380,01000600,0000.48,0000.23,0000.33,-000.13,0000.38,-000.14,0000.10,0000.37,0000.10,26.4,00.7,0663.1,34.7
2016-05-23T02:26:00Z,0000380,01000600,0001.06,0000.53,0000.22,0000.18,0000.13,-000.11,0000.28,0000.01,0000.26,26.4,00.8,0663.1,34.7
2016-05-23T02:27:00Z,0000380,01000600,0000.83,0000.54,0000.26,-000.40,-000.11,-000.21,0000.03,0000.10,0000.17,26.4,00.8,0663.2,34.7
2016-05-23T02:28:00Z,0000380,01000600,0002.00,0000.79,0000.25,0000.08,0000.05,-000.35,0000.06,-000.00,-000.09,26.4,00.8,0663.1,34.7
2016-05-23T02:29:00Z,0000380,01000600,0000.55,0001.32,0000.36,-000.14,0000.32,0000.10,0000.32,0000.28,-000.12,26.4,00.8,0663.2,34.7
2016-05-23T02:30:00Z,0000380,01000600,0001.21,0000.90,0000.28,-000.11,0000.03,-000.14,-000.01,-000.04,0000.24,26.4,00.9,0663.1,34.7
2016-05-23T02:31:00Z,0000380,01000600,0001.83,0000.94,0000.02,0000.02,0000.32,-000.19,0000.07,0000.20,-000.21,26.5,00.9,0663.1,34.7
2016-05-23T02:32:00Z,0000380,01000600,0000.53,0000.35,0000.59,0000.00,0000.10,-000.02,0000.28,0000.28,0000.77,26.5,00.9,0663.1,34.7
2016-05-23T02:33:00Z,0000380,01000600,0002.58,0001.56,0000.89,-000.61,0000.16,0000.11,0000.22,0000.04,-000.29,26.6,00.9,0663.1,34.7
2016-05-23T02:34:00Z,0000380,01000600,0002.98,0002.33,0000.89,0000.43,0000.25,-000.11,0000.29,0000.41,0000.09,26.7,00.9,0663.1,34.7
2016-05-23T02:35:00Z,0000380,01000600,0002.10,0001.53,0000.84,0000.49,0000.30,-000.14,0000.27,0000.32,0000.59,26.7,00.9,0663.1,34.7
2016-05-23T02:36:00Z,0000380,01000600,0001.25,0000.84,0000.79,-000.35,0000.21,0000.08,0000.17,-000.07,0000.06,26.7,00.9,0663.1,34.7
2016-05-23T02:37:00Z,0000380,01000600,0000.62,0001.38,0000.61,0000.38,0000.17,0000.18,0000.30,0000.31,0000.39,26.7,00.9,0663.1,34.7
2016-05-23T02:38:00Z,0000380,01000600,0000.92,0000.77,0000.60,0000.14,0000.05,0000.10,0000.12,0000.23,0000.12,26.7,00.8,0663.2,34.7
2016-05-23T02:39:00Z,0000380,01000600,0002.13,0001.86,0001.29,0000.35,0000.10,0000.13,0000.10,0000.19,-000.22,26.7,00.9,0663.2,34.7
2016-05-23T02:40:00Z,0000380,01000600,0002.10,0001.44,0000.79,-000.03,0000.54,0000.34,0000.25,-000.08,-000.22,26.7,00.9,0663.2,34.7
2016-05-23T02:41:00Z,0000380,01000600,0000.95,0001.30,0000.90,0000.35,0000.73,0000.08,0000.25,0000.24,0000.27,26.7,00.8,0663.2,34.7
2016-05-23T02:42:00Z,0000380,01000600,0002.25,0001.64,0000.77,0000.59,0000.33,0000.06,0000.18,0000.25,0000.39,26.7,00.8,0663.2,34.7
2016-05-23T02:43:00Z,0000380,01000600,0002.03,0001.67,0000.89,0000.59,0000.17,-000.05,0000.25,0000.22,0000.15,26.7,00.8,0663.2,34.7
2016-05-23T02:44:00Z,0000380,01000600,0001.87,0001.58,0000.75,-000.33,-000.43,-000.11,0000.25,0000.00,0000.01,26.7,00.9,0663.2,34.7
2016-05-23T02:45:00Z,0000380,01000600,0002.12,0001.17,0000.38,0000.18,0000.41,0000.08,-000.02,0000.21,-000.07,26.7,00.8,0663.2,34.7
2016-05-23T02:46:00Z,0000380,01000600,0001.96,0001.60,0001.02,-000.86,0000.68,-000.05,0000.25,0000.11,0000.28,26.7,00.9,0663.2,34.7
2016-05-23T02:47:00Z,0000380,01000600,0002.84,0001.83,0000.51,0000.18,-000.05,-000.08,0000.25,0000.28,0000.38,26.6,00.9,0663.2,34.7
2016-05-23T02:48:00Z,0000380,01000600,0003.38,0001.60,0000.31,-000.14,0000.84,0000.03,0000.32,0000.06,-000.23,26.6,00.8,0663.2,34.7
2016-05-23T02:49:00Z,0000380,01000600,0002.05,0001.82,0000.50,0000.41,0000.19,-000.21,0000.14,0000.21,0000.38,26.5,00.8,0663.2,34.7
2016-05-23T02:50:00Z,0000380,01000600,0002.30,0001.54,0000.67,-000.14,0000.22,0000.03,0000.34,0000.27,-000.17,26.5,00.8,0663.2,34.7
2016-05-23T02:51:00Z,0000380,01000600,0002.50,0001.47,0000.51,-000.19,0000.62,0000.27,0000.09,-000.01,0000.41,26.5,00.9,0663.2,34.7
2016-05-23T02:52:00Z,0000380,01000600,0002.54,0001.39,0000.73,0000.22,0000.27,0000.08,0000.05,0000.31,-000.14,26.5,00.9,0663.2,34.7
2016-05-23T02:53:00Z,0000380,01000600,0002.27,0001.37,0000.88,0000.27,0000.49,-000.19,0000.23,0000.21,0000.41,26.5,00.9,0663.2,34.7
2016-05-23T02:54:00Z,0000380,01000600,0001.94,0001.59,0000.42,0000.26,0000.17,-000.08,0000.32,-000.01,0000.09,26.5,00.8,0663.2,34.7
2016-05-23T02:55:00Z,0000380,01000600,0002.43,0001.27,0000.98,0000.21,0000.59,0000.05,0000.07,0000.30,-000.10,26.5,00.8,0663.2,34.7
2016-05-23T02:56:00Z,0000380,01000600,0002.70,0001.02,0001.06,0000.16,0000.05,-000.21,0000.35,0000.07,0000.31,26.5,00.9,0663.2,34.7
2016-05-23T02:57:00Z,0000380,41000600,,,,,,,,,,,,0663.3,34.7
2016-05-23T02:58:00Z,0000380,61000600,,,,,,,,,,26.3,00.8,0662.4,34.7
2016-05-23T02:59:00Z,0000380,21000600,,,,,,,,,,26.3,00.8,0662.3,34.7
2016-05-23T03:00:00Z,0000380,21000600,,,,,,,,,,26.3,00.8,0662.3,34.6
2016-05-23T03:01:00Z,0000380,21000600,,,,,,,,,,26.3,00.8,0662.3,34.6
2016-05-23T03:02:00Z,0000380,21000600,,,,,,,,,,26.3,00.8,0662.3,34.6
2016-05-23T03:03:00Z,0000380,61000600,,,,,,,,,,26.4,00.8,0662.3,34.6
2016-05-23T03:04:00Z,0000380,41000600,0001.43,0000.83,0000.97,0000.73,0000.21,0000.13,0000.30,0000.10,0000.14,26.5,00.9,0663.1,34.6
2016-05-23T03:05:00Z,0000380,01000600,0000.18,0000.71,0000.45,-000.27,0000.41,0000.21,0000.12,0000.41,0000.09,26.5,00.8,0663.2,34.6
2016-05-23T03:06:00Z,0000380,01000600,0000.89,0000.26,0000.19,0000.41,0000.22,0000.03,0000.07,-000.19,-000.20,26.5,00.9,0663.2,34.6
2016-05-23T03:07:00Z,0000380,01000600,0000.36,0001.18,0000.69,0000.83,0000.37,0000.14,0000.17,0000.19,0000.25,26.5,00.8,0663.2,34.6
2016-05-23T03:08:00Z,0000380,01000600,0001.71,0000.98,0000.73,0000.06,0000.00,-000.26,0000.08,-000.10,-000.05,26.5,00.8,0663.2,34.6
2016-05-23T03:09:00Z,0000380,01000600,0000.60,0001.13,0000.50,0000.53,-000.13,-000.26,0000.08,0000.19,0000.06,26.5,00.7,0663.2,34.6
2016-05-23T03:10:00Z,0000380,01000600,0001.37,0001.24,0000.80,0000.49,-000.02,0000.06,-000.13,-000.06,0000.02,26.5,00.7,0663.2,34.6
2016-05-23T03:11:00Z,0000380,01000600,0001.27,0000.88,0000.37,0000.57,0000.25,-000.21,0000.33,0000.07,-000.03,26.5,00.7,0663.2,34.6
2016-05-23T03:12:00Z,0000380,01000600,0000.64,0000.81,0000.57,0000.24,0000.10,-000.02,0000.10,0000.27,0000.13,26.5,00.8,0663.2,34.6